Location: Chacón
(10.5789°N, 66.9317°W)
Time: 01:02:14
(UTC+00:00)

Meteor 1-11 - Pass Details

Date: 23 May 2024
Orbit: 842 x 883 km, 81.2° (Epoch: 12 June)

Event Time Altitude Azimuth Distance (km) Brightness Sun altitude
Exits shadow 08:24:22 29° 181° (S) 1,517 5.2 -23.3°
Maximum altitude 08:27:23 84° 96° (E) 862 4.2 -22.6°
Drops below altitude 10° 08:33:03 10° 7° (N) 2,495 7.1 -21.4°
Sets 08:35:30 0° 7° (N) 3,438 7.8 -20.9°
